Location: Malvern Link
(52.1333°N, 2.3000°W)
Time: 07:01:47
(UTC+00:00)

USA 186 - Pass Details

Date: 18 September 2020
Orbit: 261 x 425 km, 96.9° (Epoch: 12 October)

Event Time Altitude Azimuth Distance (km) Brightness Sun altitude
Exits shadow 18:49:23 - 135° (SE) 1,969 4.7 -5.9°
Reaches altitude 10° 18:50:42 10° 126° (SE) 1,461 3.9 -6.1°
Maximum altitude 18:53:23 26° 67° (ENE) 860 2.9 -6.5°
Drops below altitude 10° 18:56:09 10° 9° (N) 1,521 4.6 -6.9°
Sets 18:58:23 0° 357° (N) 2,406 5.8 -7.3°
